Retour au catalogue

STARLINK-34777

ActifCommunicationsVLEO
NORAD 65339·PAYLOAD·🇺🇸 United States

Lancé Aug 27, 2025 depuis Cape Canaveral Space Force Station

Loading…

Prochains Passages (prochaines 24 heures)

TLE

FraisSource: CelesTrak SupGP

Époque: Sep 14, 2026, 14:14 UTC

1 65339C 25189S   26257.59354167 -.00043983  00000+0 -14143-2 0  2573
2 65339  53.1593  47.9456 0000768  74.2772  81.7053 15.31726896    12

Suivez STARLINK-34777 en temps réel avec AllMySat

Download on the App Store